COSMOS 2579

导读

COSMOS 2579是独立国协(CIS)于2024年10月31日发射的卫星,隶属于俄罗斯历史悠久的“宇宙”(COSMOS)卫星系列。该系列自1962年起持续发射,以多用途、尤其是军用航天任务为主,多数承担侦察、技术试验或航天验证任务。作为系列最新成员之一,COSMOS 2579延续了该系列保密传统,具体任务细节暂未公开,它的成功发射延续了俄罗斯在航天侦察与空间技术领域的持续探索。

Basic Information
目录编号:
61730
目录名称:
COSMOS 2579
国际标识:
2024-197A
轨道中心:
EARTH
卫星名称:
COSMOS 2579
卫星全名:
COSMOS 2579
卫星状态:
在轨 (已飞行594 天)
发射日期:
2024-10-31 UTC
国别 :
俄罗斯(独联体) (CIS)
星等 :
--
Orbit Information
数据来源 国际轨道数据 AOE轨道数据
星历时间 2026-06-17T12:54:14+0800
10小时前
查看轨道信息
2026-06-17T04:00:00+0800
19小时前
查看轨道信息
半长轴 6869.255km 6869.284km
偏心率 0.0002683 0.0002919
轨道倾角 97.559° 97.561°
近地点辐角 63.717° 59.699°
升交点赤经 92.186° 91.810°
平近点角 296.434° 65.103°
近地点 489.274km 489.141km
远地点 492.962km 493.153km
周期 94.433分钟 94.434分钟
每日圈数 15.248895 15.248797
Detailed Information
使用方式:
暂无
2D Orbit Map
3D Orbit Map
Orbit Altitude Analysis Chart
Orbit Inclination Analysis Chart
Orbit Comprehensive Analysis Chart
View Comprehensive Chart